This demonstration page uses our WeatherBlox Daily Observations layout. Learn more.

Left ArrowRight Arrow

Hourly Observations for May 17, 2017

Temp ( °F °C ) Dew Point ( °F °C ) Humidity (%) Winds ( mph kmh ) Pressure ( in mb ) Visibility ( mi km ) Precip ( " mm )
12:53 am 00:53 Clear 69 20.6 63 17.2 81 81 Calm 30.01 1016 10 16 0.00 0.00
1:53 am 01:53 Clear 66 18.9 62 16.7 87 87 Calm 30.01 1016 10 16 0.00 0.00
2:53 am 02:53 Clear 67 19.4 62 16.7 84 84 Calm 30.00 1016 10 16 0.00 0.00
3:53 am 03:53 Clear 73 22.8 58 14.4 59 59 S 6 9 29.99 1016 10 16 0.00 0.00
4:53 am 04:53 Clear 64 17.8 60 15.6 87 87 VRB 3 6 30.01 1016 10 16 0.00 0.00
5:53 am 05:53 Clear 63 17.2 60 15.6 90 90 Calm 30.02 1017 10 16 0.00 0.00
6:53 am 06:53 Sunny 61 16.1 60 15.6 97 97 Calm 30.04 1017 10 16 0.00 0.00
7:53 am 07:53 Sunny 68 20 62 16.7 81 81 Calm 30.05 1018 10 16 0.00 0.00
8:53 am 08:53 Sunny 72 22.2 64 17.8 76 76 S 7 11 30.08 1019 10 16 0.00 0.00
9:53 am 09:53 Sunny 76 24.4 65 18.3 69 69 S 7 11 30.08 1019 10 16 0.00 0.00
10:53 am 10:53 Sunny 78 25.6 65 18.3 64 64 VRB 6 9 30.08 1019 10 16 0.00 0.00
11:53 am 11:53 Sunny 83 28.3 67 19.4 59 59 S 8 13 30.08 1019 10 16 0.00 0.00
12:53 pm 12:53 Sunny 84 28.9 66 18.9 55 55 SE 8 13 30.08 1019 10 16 0.00 0.00
1:53 pm 13:53 Partly Cloudy 88 31.1 62 16.7 42 42 SSE 10 17 30.06 1018 10 16 0.00 0.00
2:53 pm 14:53 Mostly Sunny 88 31.1 58 14.4 36 36 SSE 10 17 30.05 1018 10 16 0.00 0.00
3:53 pm 15:53 Mostly Sunny 88 31.1 57 13.9 35 35 VRB 6 9 30.03 1017 10 16 0.00 0.00
4:53 pm 16:53 Sunny 89 31.7 58 14.4 35 35 S 9 15 30.02 1017 10 16 0.00 0.00
5:53 pm 17:53 Partly Cloudy 87 30.6 58 14.4 37 37 S 7 11 30.01 1016 10 16 0.00 0.00
6:53 pm 18:53 Sunny 88 31.1 59 15 38 38 S 9 15 30.00 1016 10 16 0.00 0.00
7:53 pm 19:53 Sunny 86 30 56 13.3 36 36 SSE 10 17 29.99 1016 10 16 0.00 0.00
8:53 pm 20:53 Clear 83 28.3 56 13.3 40 40 SSE 6 9 29.98 1015 10 16 0.00 0.00
9:53 pm 21:53 Clear 82 27.8 59 15 46 46 Calm 30.00 1016 10 16 0.00 0.00
10:53 pm 22:53 Mostly Clear 72 22.2 61 16.1 68 68 Calm 30.02 1017 10 16 0.00 0.00
11:53 pm 23:53 Partly Cloudy 77 25 62 16.7 60 60 Calm 30.02 1017 10 16 0.00 0.00

Powered by AerisWeather